Flag for Martinique Weather past 2 weeks in Fort-de-France, Martinique

Now
77 °F

Light rain. Partly cloudy.


Feels Like: 78 °F
Forecast: 77 / 85 °F
Wind: 13 mph from Northeast

Location: Le Lamentin Airport


UV Index: 7 (High)

Visibility: 4 mi


Pressure: 30.04 "Hg

Humidity: 83%

Dew point: 72 °F

Location of Fort-de-FranceLocation

Historic Weather in Fort-de-France

°F

Fort-de-France temperature yesterday

Maximum temperature yesterday: 86 °F (at 11:30 AM)
Minimum temperature yesterday: 73 °F (at 9:00 PM)
Average temperature yesterday: 79 °F

Past Weeks' High & Low Weather Summary

 TemperatureHumidityPressure
High88 °F (Apr 16, 2:00 PM)100% (Apr 15, 6:00 AM)30.09 "Hg (Apr 15, 6:00 AM)
Low70 °F (Apr 14, 5:30 AM)35% (Apr 11, 11:00 AM)29.86 "Hg (Apr 14, 4:00 PM)
Average79 °F72%29.99 "Hg
* Reported Apr 4 8:00 PM — Apr 19 8:30 PM, Fort-de-France, Weather by CustomWeather, © 2014

Note: Actual official high and low records may vary slightly from our data, if they occured in-between our weather recording intervals... More about our weather records

Advertising

Historic Weather Conditions — Data for Previous 24 hours

 ConditionsComfort  
Time TempWeatherWind HumidityBarometerVisibility
8:30 PM
Apr 19
79 °FPartly cloudy.15 mph79%30.01 "HgN/A
8:00 PM77 °FPartly cloudy.14 mph83%30.01 "HgN/A
7:30 PM77 °FLight rain. Partly cloudy.18 mph83%30.01 "HgN/A
7:00 PM79 °FPartly cloudy.15 mph74%29.98 "HgN/A
6:30 PM79 °FPassing clouds.16 mph74%29.98 "HgN/A
6:00 PM81 °FPartly sunny.16 mph70%29.98 "HgN/A
5:30 PM81 °FBroken clouds.16 mph70%29.98 "HgN/A
5:00 PM82 °FPartly sunny.21 mph66%29.98 "HgN/A
4:30 PM82 °FScattered clouds.22 mph66%29.98 "HgN/A
4:00 PM82 °FPartly sunny.22 mph66%29.98 "HgN/A
3:30 PM82 °FPartly sunny.21 mph70%29.98 "HgN/A
3:00 PM81 °FPartly sunny.21 mph74%29.98 "HgN/A
2:30 PM84 °FPartly sunny.20 mph66%29.98 "HgN/A
2:00 PM82 °FBroken clouds.17 mph70%29.98 "HgN/A
1:30 PM86 °FPartly sunny.23 mph59%30.01 "Hg6 mi
1:00 PM86 °FPartly sunny.24 mph62%30.01 "Hg5 mi
12:30 PM84 °FPartly sunny.24 mph62%30.01 "Hg4 mi
12:00 PM84 °FPartly sunny.24 mph62%30.04 "Hg4 mi
11:30 AM84 °FBroken clouds.25 mph66%30.04 "Hg3 mi
11:00 AM84 °FPartly sunny.26 mph62%30.04 "Hg3 mi
10:30 AM82 °FBroken clouds.23 mph70%30.04 "Hg2 mi
10:00 AM81 °FBroken clouds.16 mph79%30.04 "Hg2 mi
9:30 AM82 °FScattered clouds.21 mph70%30.04 "HgN/A
9:00 AM79 °FBroken clouds.25 mph79%30.04 "HgN/A
8:30 AM81 °FPassing clouds.22 mph74%30.04 "HgN/A
8:00 AM77 °FBroken clouds.22 mph83%30.04 "HgN/A
7:30 AM79 °FPartly sunny.15 mph79%30.04 "HgN/A
7:00 AM79 °FScattered clouds.13 mph79%30.01 "HgN/A
6:30 AM75 °FBroken clouds.15 mph89%30.01 "HgN/A
6:00 AM75 °FScattered clouds.10 mph89%30.01 "HgN/A
5:30 AM75 °FPassing clouds.7 mph89%29.98 "HgN/A
5:00 AM73 °FOvercast.3 mph89%29.98 "HgN/A
4:30 AM72 °FLight rain. Partly cloudy.9 mph94%29.98 "HgN/A
4:00 AM73 °FPartly cloudy.14 mph94%29.98 "Hg5 mi
3:30 AM75 °FPartly cloudy.12 mph83%29.98 "HgN/A
3:00 AM75 °FPartly cloudy.10 mph89%29.95 "HgN/A
2:30 AM77 °FPassing clouds.15 mph83%29.98 "HgN/A
2:00 AM75 °FPassing clouds.12 mph89%29.98 "HgN/A
1:30 AM75 °FPartly cloudy.7 mph89%29.98 "HgN/A
1:00 AM75 °FLight rain. Partly cloudy.18 mph89%29.98 "Hg4 mi
12:30 AM75 °FPassing clouds.8 mph89%29.98 "HgN/A
12:00 AM77 °FPassing clouds.10 mph83%30.01 "HgN/A
11:30 PM
Apr 18
77 °FPartly cloudy.12 mph83%30.01 "HgN/A
11:00 PM77 °FPassing clouds.10 mph83%30.01 "HgN/A
10:30 PM75 °FPartly cloudy.10 mph89%30.01 "HgN/A
10:00 PM75 °FPartly cloudy.6 mph89%30.01 "HgN/A
9:30 PM75 °FMostly cloudy.9 mph89%30.01 "HgN/A
9:00 PM73 °FPartly cloudy.16 mph94%30.01 "HgN/A
Weather by CustomWeather, © 2014

See weather overview